STARLINK-31890, 59785

Orbit data source: Space-Track

STARLINK-31890, 59785 is a payload satellite owned by SpaceX/Seattle (US) in LEO that was launched on Sat, 18 May 2024 UTC via an FALCON 9 launch vehicle from the Air Force Eastern Test Range (AFETR). Payload-class satellites include a variety of spacecraft equipped with specific instruments for various scientific and technological missions. These include communications satellites like Starlink; space stations such as the ISS; scientific satellites like the Hubble; Earth observation satellites from companies like Planet Labs, Umbra, and HawkEye 360; GPS; miniature CubeSats for education and research; and military/defense satellites.

Loading next visibility...
Identifier
59785, 2024-093D
Orbit
LEO
Country
Flag of USUS
Related business
Manufacturer
SpaceX/Seattle
Mission
Operational Commercial Communications
Bus & Motor
STARLINK V2M, Unknown motor
Mass
730 kg wet, ~700 kg dry
Launch date (UTC)
2024-05-18 (1 year ago)
Launch vehicle
FALCON 9
Launch site
Air Force Eastern Test Range (AFETR)
Object type
Payload
Rocket body
Debris
Shape & HBR
Box + 2 Pan, 17.7 m
Radar Cross Section
33.884 m², Large (>1 m²)

Expand to show TLE details & history
Last TLE update: 1 day ago

TLE from 1 day ago
0 STARLINK-31890
1 59785U 24093D   25291.26852150  .00001640  00000-0  69086-4 0  9994
2 59785  43.0040 289.7814 0001089 264.8627  95.2100 15.27593019 80950
Epoch: 2025-10-18T06:26Z
TLE epoch observation values (Epoch: 2025-10-18T06:26:40.257Z)
Latitude
-0.00005°
Longitude
166.11163°
Altitude
482.854 km
Speed
7.626 km/s
True Right ascension
19h 19m 07s
True Declination
0° 00' 00"
Sunlit
Object was in daylight at epoch
Visualization orbit readout
Latitude
Unknown
Longitude
Unknown
Altitude
Unknown
Speed
Unknown
Apparent Right ascension
Unknown
Apparent Declination
Unknown
Sunlit
N/A
Visualization observer readout
Local Sidereal Time
05:45:27
Azimuth
Unknown
Elevation
Unknown
Doppler factor
Unknown
Orbital elements
Apogee altitude
485.702 km
Perigee altitude
484.207 km
Semi-major axis
6,863.092 km
Eccentricity
0.00011
Inclination
43.004°
RAAN
289.7814°
Arg. of periapsis
264.8627°
True anomaly
95.22243°
Mean anomaly
95.21°
Eccentric anomaly
95.21621°
Mean motion
3.81736 °/min
Orbital period
94.31 mins
BSTAR
0.000069086
Loading maneuver chart data...
Computing Atmospheric mass density...
Loading historical data...
Loading historical data...
Loading historical data...
Loading historical data...
Loading historical data...
Loading historical data...
Loading historical data...

Documentation

Showing up to 5 results
|